Location: *
(46.3500°N, 10.9000°E)
Time: 21:16:36
(UTC+00:00)

A-11 Canister half - Pass Details

Date: 24 April 2021
Orbit: 1526 x 1682 km, 47.3° (Epoch: 13 May)

Event Time Altitude Azimuth Distance (km) Brightness Sun altitude
Rises 18:03:56 0° 286° (WNW) 4,920 15.8 1.2°
Reaches altitude 10° 18:07:05 10° 286° (WNW) 3,940 13.6 0.6°
Maximum altitude 18:17:13 77° 203° (SSW) 1,718 9.4 -1.0°
Drops below altitude 10° 18:27:18 10° 119° (ESE) 3,915 10.5 -2.6°
Enters shadow 18:29:25 - 118° (ESE) 4,570 10.8 -3.0°
Sets 18:30:25 0° 118° (ESE) 4,887 - -3.1°
